This demonstration page uses our WeatherBlox Daily Observations layout. Learn more.

Left ArrowRight Arrow

39.92423, -83.80882

Hourly Observations for July 8, 2019

Temp ( °F °C ) Dew Point ( °F °C ) Humidity (%) Winds ( mph kmh ) Pressure ( in mb ) Visibility ( mi km ) Precip ( " mm )
12:56 am 00:56 Clear 68 20 66 18.9 93 93 N 5 7 29.96 1015 10 16.0934 N/A
1:56 am 01:56 Clear 67 19.4 66 18.9 97 97 N 6 9 29.96 1015 10 16.0934 N/A
2:56 am 02:56 Clear 67 19.4 65 18.3 93 93 N 8 13 29.95 1014 10 16.0934 N/A
3:56 am 03:56 Clear 67 19.4 63 17.2 87 87 NNE 12 19 29.95 1014 10 16.0934 N/A
4:56 am 04:56 Clear 66 18.9 62 16.7 87 87 NNE 8 13 29.96 1015 10 16.0934 N/A
5:56 am 05:56 Clear 66 18.9 63 17.2 90 90 NNE 7 11 29.97 1015 10 16.0934 N/A
6:56 am 06:56 Sunny 66 18.9 63 17.2 90 90 N 8 13 29.99 1016 10 16.0934 N/A
7:56 am 07:56 Sunny 69 20.6 64 17.8 84 84 NE 9 15 30 1016 10 16.0934 N/A
8:56 am 08:56 Sunny 71 21.7 64 17.8 79 79 N 14 22 30.01 1016 10 16.0934 N/A
9:56 am 09:56 Sunny 75 23.9 64 17.8 69 69 NE 14 22 30.01 1016 10 16.0934 N/A
10:56 am 10:56 Sunny 77 25 65 18.3 66 66 NE 10 17 30.01 1016 10 16.0934 N/A
11:56 am 11:56 Sunny 77 25 65 18.3 66 66 NNE 12 19 30.01 1016 10 16.0934 N/A
12:56 pm 12:56 Sunny 80 26.7 66 18.9 62 62 NE 9 15 30.01 1016 10 16.0934 N/A
1:56 pm 13:56 Partly Cloudy 81 27.2 66 18.9 61 61 N 7 11 30.01 1016 10 16.0934 N/A
2:56 pm 14:56 Sunny 82 27.8 65 18.3 56 56 NE 9 15 30 1016 10 16.0934 N/A
3:56 pm 15:56 Mostly Sunny 83 28.3 65 18.3 55 55 NE 8 13 30 1016 10 16.0934 N/A
4:56 pm 16:56 Sunny 83 28.3 63 17.2 51 51 VRB 3 6 29.99 1016 10 16.0934 N/A
5:56 pm 17:56 Mostly Sunny 82 27.8 65 18.3 56 56 NE 7 11 29.98 1015 10 16.0934 N/A
6:56 pm 18:56 Sunny 81 27.2 66 18.9 61 61 NE 8 13 29.98 1015 10 16.0934 N/A
7:56 pm 19:56 Sunny 80 26.7 66 18.9 62 62 NE 8 13 29.98 1015 10 16.0934 N/A
8:56 pm 20:56 Sunny 74 23.3 65 18.3 74 74 NE 9 15 29.99 1016 10 16.0934 N/A
9:56 pm 21:56 Clear 71 21.7 64 17.8 79 79 NE 8 13 30.01 1016 10 16.0934 N/A
10:56 pm 22:56 Clear 69 20.6 59 15 70 70 ENE 8 13 30.02 1017 10 16.0934 N/A
11:56 pm 23:56 Clear 67 19.4 56 13.3 68 68 ENE 8 13 30.02 1017 10 16.0934 N/A

Powered by AerisWeather